Regional Weather Roundup
Issued by NWS

Home | Current Version | Previous Version | Graphics & Text | Print | Product List | Glossary On
Versions: 1 2 3 4 5 6 7 8 9 10 11 12 13 14 15 16 17 18 19 20 21 22 23 24 25 26 27 28 29 30 31 32 33 34 35 36 37 38 39 40 41 42 43 44 45 46 47 48 49 50
000
ASUS43 KDMX 200801
RWRIA

WEATHER ROUNDUP FOR IOWA
NATIONAL WEATHER SERVICE DES MOINES IA
300 AM CDT WED SEP 20 2017

NOTE: "FAIR" INDICATES FEW OR NO CLOUDS BELOW 12,000 FEET WITH NO
SIGNIFICANT WEATHER AND/OR OBSTRUCTIONS TO VISIBILITY.

* - THESE STATIONS ARE NOT NWS STATIONS...THUS NOT UNDER NWS
QUALITY CONTROL.  THEY ALSO DO NOT REPORT WEATHER SUCH
AS PRECIPITATION OR FOG.

IAZ001>003-012>014-020>022-031>034-043>046-200900-
   NORTHWEST IOWA

CITY           SKY/WX    TMP DP  RH WIND       PRES   REMARKS
CARROLL *      CLEAR     75  70  83 S16G23    29.62S
DENISON *      PTCLDY    75  70  83 SW12G20   29.65R
LE MARS *      CLOUDY    61  59  94 NE3       29.69R
ORANGE CITY *  CLOUDY    63  57  82 NE7       29.68R
SHELDON *      CLOUDY    61  59  94 CALM      29.66S
SIOUX CITY     CLOUDY    63  58  83 N6        29.69R
SPENCER        LGT RAIN  64  60  87 N9        29.67S
STORM LAKE *   CLOUDY    72  63  73 N14G21    29.68R
$$

IAZ055>058-069>071-079>083-090>094-200900-
   SOUTHWEST IOWA

CITY           SKY/WX    TMP DP  RH WIND       PRES   REMARKS
ATLANTIC *     CLEAR     75  70  83 S13G24    29.64R
AUDUBON *      CLEAR     73  70  88 S10G16    29.66R
CLARINDA *     PTCLDY    77  70  78 S13G20    29.67S
COUNCIL BLFS * CLEAR     77  73  88 SW12      29.64R
CRESTON *      CLOUDY    73 -35   1 S16G23    29.69F
HARLAN  *      CLEAR     75  70  83 S14G24    29.66S
LAMONI         CLEAR     73  67  81 SE10G18   29.71F
RED OAK *      PTCLDY    77  70  78 S15G23    29.64S
SHENANDOAH *   PTCLDY    77  70  78 S13G18    29.64R
$$

IAZ047>049-059>061-072>074-084-200900-
   CENTRAL IOWA

CITY           SKY/WX    TMP DP  RH WIND       PRES   REMARKS
AMES           MOCLDY    71  68  90 S10       29.68F
ANKENY *       PTCLDY    73  66  78 S12       29.69F
BOONE *        MOCLDY    73  68  83 S9        29.67S
CHARITON *     CLEAR     73  66  78 S14       29.72S
DES MOINES     CLOUDY    76  67  73 S16       29.68F
GRINNELL*      PTCLDY    69  65  85 SE8       29.76S
KNOXVILLE *    CLEAR     72  66  83 S9        29.71S
MARSHALLTOWN   PTCLDY    71  66  84 SE12      29.72S
NEWTON *       CLEAR     72  66  83 SE10      29.73S
PELLA *        CLEAR     73  65  75 S8        29.74S
PERRY *          N/A     76  70  79 S14G20    29.66S
$$

IAZ004>006-015-016-023>025-035-036-200900-
   NORTH CENTRAL IOWA

CITY           SKY/WX    TMP DP  RH WIND       PRES   REMARKS
ALGONA *       CLEAR     73  70  88 S15G25    29.64R
CLARION *      CLOUDY    73  68  83 S17G26    29.65S
ESTHERVILLE    LGT RAIN  65  65 100 W3        29.65F
FORT DODGE *   CLEAR     74  67  78 S14G21    29.64F
MASON CITY     CLOUDY    70  65  84 SE16G26   29.68F
FOREST CITY *    N/A     72  64  78 S17G23    29.64F
IOWA FALLS *     N/A     72  66  83 SE13      29.71F
$$

IAZ007>011-017>019-026>030-037>042-050>054-066-200900-
   NORTHEAST IOWA

CITY           SKY/WX    TMP DP  RH WIND       PRES   REMARKS
CEDAR RAPIDS   CLEAR     70  65  84 SE12      29.78R
CHARLES CITY * CLOUDY    70  66  88 SE13G22   29.73F
CLINTON *      PTCLDY    66  64  93 SE8       29.85R
DECORAH *      CLOUDY    68  64  88 SE12G21   29.76F
DUBUQUE        CLEAR     66  63  90 S12       29.85R
MONTICELLO *   MOCLDY    68  64  88 SE8G16    29.81S
OELWEIN *      CLOUDY    70  66  88 SE16G22   29.77F
WATERLOO       MOCLDY    69  64  84 SE16      29.73F
$$

IAZ064-065-067-068-078-200900-
   EAST CENTRAL IOWA

CITY           SKY/WX    TMP DP  RH WIND       PRES   REMARKS
DAVENPORT      MOCLDY    68  63  84 SE9       29.85S
IOWA CITY      CLEAR     69  64  84 SE8       29.80S
MUSCATINE *    CLEAR     70  64  83 VRB3      29.80F
QUAD CITIES    MOCLDY    70  63  78 SE7       29.82S
$$

IAZ062-063-075>077-085>089-095>099-200900-
   SOUTHEAST IOWA

CITY           SKY/WX    TMP DP  RH WIND       PRES   REMARKS
BURLINGTON     CLEAR     72  67  84 S12       29.80F
FAIRFIELD *    CLEAR     72  64  78 S9        29.77S
FORT MADISON * CLEAR     72  66  83 S9        29.81F
KEOKUK *       CLEAR     73  66  78 S6        29.79F
OSKALOOSA *      N/A     71  65  83 S9        29.76S
OTTUMWA        CLEAR     74  66  76 S10       29.75F
WASHINGTON *   CLEAR     70  66  88 SE6       29.80S
$$

ABBREVIATIONS USED IN REMARKS
   TC - TEMPERATURES IN CELSIUS
  WCI - WIND CHILL INDEX
   HX - HEAT INDEX
  VSB - VISIBILITY
$$





USA.gov is the U.S. government's official web portal to all federal, state and local government web resources and services.